Location: ???????????
(55.5758°N, 38.4970°E)
Time: 17:10:47
(UTC+00:00)

Lacrosse 4 Rocket - Pass Details

Date: 15 November 2025
Orbit: 513 x 566 km, 68.0° (Epoch: 14 December)

Event Time Altitude Azimuth Distance (km) Brightness Sun altitude
Exits shadow 02:48:25 22° 338° (NNW) 1,199 2.8 -18.3°
Maximum altitude 02:50:38 45° 41° (NE) 731 2.1 -18.0°
Drops below altitude 10° 02:54:26 10° 115° (ESE) 1,762 5.0 -17.4°
Sets 02:56:39 0° 122° (ESE) 2,640 6.0 -17.1°
